Simultaneous Nadir Overpasses (SNOs) Predictions

Prediction of SNOs between METOP-C and LANDSAT-8 Satellite Orbit:

Table of predicted SNOs for the next 14.0 days since TLE Epoch: 10/22/2022
Index Date (METOP-C) Time (METOP-C) Lat,Lon (METOP-C) SZA (METOP-C ) Date (LANDSAT-8) Time (LANDSAT-8) Lat,Lon (LANDSAT-8) SZA (LANDSAT-8 ) Distance(km) Time Diff (sec)
1 10/24/2022 03:54:49 -81.09, -19.44 84.86 10/24/2022 03:55:44 -81.10, -19.34 84.82 1.98 55
2 10/24/2022 04:45:26 81.12, 148.85 95.28 10/24/2022 04:45:09 81.13, 148.76 95.26 1.60 17
3 10/26/2022 23:29:14 -81.09, 46.81 83.91 10/26/2022 23:30:01 -81.08, 46.91 83.88 1.84 47
4 10/27/2022 00:19:51 81.12,-144.95 96.22 10/27/2022 00:19:26 81.11,-145.02 96.20 1.34 25
5 10/29/2022 19:03:38 -81.09, 113.38 82.95 10/29/2022 19:04:17 -81.09, 113.41 82.93 0.59 39
6 10/29/2022 19:54:15 81.12, -78.41 97.18 10/29/2022 19:53:42 81.12, -78.55 97.15 2.47 33
7 11/01/2022 14:38:00 -81.11,-179.72 81.97 11/01/2022 14:38:31 -81.11,-179.85 81.97 2.13 31
8 11/01/2022 15:28:39 81.11, -12.29 98.06 11/01/2022 15:27:57 81.11, -12.19 98.05 1.77 42
9 11/04/2022 10:12:25 -81.10,-113.62 81.14 11/04/2022 10:12:47 -81.10,-113.58 81.12 0.81 22



Historial Predications of SNOs between METOP-C and LANDSAT-8
